カタログに戻る

STARLINK-32954

運用中通信VLEO
NORAD 63567·PAYLOAD·🇺🇸 United States

打ち上げ Apr 13, 2025 から Cape Canaveral Space Force Station

Loading…

次のパス (今後24時間)

TLE

最新Source: CelesTrak SupGP

元期: Sep 15, 2026, 02:53 UTC

1 63567C 25075V   26258.12062500  .00001611  00000+0  58352-4 0  2588
2 63567  42.9999 280.6723 0001418 263.7898 320.9679 15.27579642    11

AllMySatでSTARLINK-32954をリアルタイム追跡

Download on the App Store